Location: Cahas Mountain Overlook
(37.0833°N, 80.1000°W)
Time: 15:32:12
(UTC-05:00)

Explorer 11/Cluster Stage 4 - All Passes

Search period start: 25 January 2022 00:00
Search period end: 04 February 2022 00:00
Orbit: 467 x 1255 km, 28.8° (Epoch: 25 January)

Date Brightness Start Highest point End Pass type
(mag) Time Alt. Az. Time Alt. Az. Time Alt. Az.
25 Jan - 03:00:03 10° SSW 03:02:01 14° SSE 03:03:59 10° SE night (unlit)
25 Jan - 04:46:43 10° SW 04:49:38 23° S 04:52:43 10° ESE visible
25 Jan - 06:34:27 10° WSW 06:37:21 20° S 06:40:34 10° SE visible
26 Jan - 02:48:23 10° SSW 02:50:42 16° SSE 02:52:57 10° SE night (unlit)
26 Jan - 04:35:26 10° SW 04:38:20 23° S 04:41:20 10° SE visible
26 Jan - 06:23:26 10° SW 06:26:02 17° S 06:28:50 10° SSE visible
27 Jan - 02:36:46 10° SSW 02:39:23 18° S 02:41:53 10° SE night (unlit)
27 Jan - 04:24:09 10° SW 04:27:02 22° S 04:29:57 10° SE visible
27 Jan - 06:12:30 10° SW 06:14:42 15° SSW 06:17:02 10° SSE visible
28 Jan - 02:25:10 10° SW 02:28:04 20° S 02:30:47 10° SE night (unlit)
28 Jan - 04:12:53 10° SW 04:15:44 22° S 04:18:35 10° SE visible
28 Jan - 06:01:40 10° SW 06:03:22 13° SSW 06:05:08 10° SSE visible
29 Jan - 00:27:03 10° S 00:28:59 12° SSE 00:30:47 10° SE night (unlit)
29 Jan - 02:13:35 10° SW 02:16:45 21° S 02:19:40 10° ESE night (unlit)
29 Jan - 04:01:35 10° WSW 04:04:26 21° S 04:07:13 10° SE visible
29 Jan - 05:51:07 10° SSW 05:52:01 11° SSW 05:52:56 10° S visible
30 Jan - 00:14:48 10° SSW 00:17:37 15° SSE 00:20:10 10° SE night (unlit)
30 Jan - 02:01:59 10° SW 02:05:26 23° S 02:08:31 10° ESE night (unlit)
30 Jan - 03:50:16 10° WSW 03:53:07 20° S 03:55:51 10° SE night (unlit)
31 Jan - 00:02:45 10° SSW 00:06:15 18° SSE 00:09:20 10° ESE night (unlit)
31 Jan - 01:50:25 10° SW 01:54:07 25° S 01:57:23 10° ESE night (unlit)
31 Jan - 03:38:57 10° WSW 03:41:48 19° SSW 03:44:29 10° SE night (unlit)
31 Jan - 22:06:24 10° SSE 22:06:49 10° SSE 22:07:12 10° SSE night (unlit)
31 Jan - 23:50:48 10° SW 23:54:52 21° S 23:58:22 10° ESE night (unlit)
01 Feb - 01:38:49 10° WSW 01:42:47 27° S 01:46:12 10° ESE night (unlit)
01 Feb - 03:27:37 10° WSW 03:30:28 18° SSW 03:33:06 10° SSE night (unlit)
01 Feb - 21:52:37 10° S 21:55:21 13° SSE 21:57:52 10° SE night (unlit)
01 Feb - 23:38:53 10° SW 23:43:29 24° S 23:47:21 10° ESE night (unlit)
02 Feb - 01:27:12 10° WSW 01:31:26 28° S 01:35:02 10° ESE night (unlit)
02 Feb - 03:16:17 10° WSW 03:19:06 18° SSW 03:21:42 10° SSE night (unlit)
02 Feb - 21:40:02 10° SSW 21:43:53 16° SSE 21:47:19 10° SE visible
02 Feb - 23:27:01 10° SW 23:32:04 28° S 23:36:16 10° ESE night (unlit)
03 Feb - 01:15:35 10° WSW 01:20:05 30° S 01:23:50 10° ESE night (unlit)
03 Feb - 03:04:55 10° WSW 03:07:44 17° SSW 03:10:18 10° SSE night (unlit)
03 Feb - 21:27:42 10° SSW 21:32:23 19° SSE 21:36:31 10° ESE visible
03 Feb - 23:15:10 10° SW 23:20:38 31° S 23:25:09 10° ESE night (unlit)
